TimeCDT,TemperatureF,Dew PointF,Humidity,Sea Level PressureIn,VisibilityMPH,Wind Direction,Wind SpeedMPH,Gust SpeedMPH,PrecipitationIn,Events,Conditions,WindDirDegrees,DateUTC
12:15 AM,55.4,55.4,100,29.93,10.0,Calm,Calm,-,N/A,,Unknown,0,2013-09-22 05:15:00
12:35 AM,53.6,53.6,100,29.93,10.0,Calm,Calm,-,N/A,,Unknown,0,2013-09-22 05:35:00
12:55 AM,53.6,53.6,100,29.93,10.0,Calm,Calm,-,N/A,,Unknown,0,2013-09-22 05:55:00
1:15 AM,53.6,53.6,100,29.93,10.0,Calm,Calm,-,N/A,,Unknown,0,2013-09-22 06:15:00
1:35 AM,53.6,53.6,100,29.94,10.0,Calm,Calm,-,N/A,,Unknown,0,2013-09-22 06:35:00
1:55 AM,53.6,53.6,100,29.94,10.0,Calm,Calm,-,N/A,,Unknown,0,2013-09-22 06:55:00
2:15 AM,53.6,51.8,94,29.94,10.0,Calm,Calm,-,N/A,,Unknown,0,2013-09-22 07:15:00
2:35 AM,51.8,51.8,100,29.94,2.5,Calm,Calm,-,N/A,,Mist,0,2013-09-22 07:35:00
2:55 AM,51.8,51.8,100,29.94,5.0,Calm,Calm,-,N/A,,Mist,0,2013-09-22 07:55:00
3:15 AM,51.8,51.8,100,29.94,10.0,Calm,Calm,-,N/A,,Unknown,0,2013-09-22 08:15:00
3:35 AM,51.8,51.8,100,29.94,7.0,Calm,Calm,-,N/A,,Unknown,0,2013-09-22 08:35:00
3:55 AM,51.8,51.8,100,29.94,7.0,Calm,Calm,-,N/A,,Unknown,0,2013-09-22 08:55:00
4:15 AM,51.8,51.8,100,29.94,7.0,Calm,Calm,-,N/A,,Unknown,0,2013-09-22 09:15:00
4:35 AM,50.0,50.0,100,29.94,10.0,Calm,Calm,-,N/A,,Unknown,0,2013-09-22 09:35:00
4:55 AM,51.8,51.8,100,29.95,2.0,Calm,Calm,-,N/A,,Mist,0,2013-09-22 09:55:00
5:15 AM,50.0,50.0,100,29.95,1.5,Calm,Calm,-,N/A,,Mist,0,2013-09-22 10:15:00
5:35 AM,50.0,50.0,100,29.95,2.5,Calm,Calm,-,N/A,,Mist,0,2013-09-22 10:35:00
5:55 AM,48.2,48.2,100,29.95,3.0,Calm,Calm,-,N/A,,Mist,0,2013-09-22 10:55:00
6:15 AM,50.0,50.0,100,29.96,0.5,Calm,Calm,-,N/A,Fog,Fog,0,2013-09-22 11:15:00
6:35 AM,48.2,48.2,100,29.96,7.0,Calm,Calm,-,N/A,,Unknown,0,2013-09-22 11:35:00
6:55 AM,48.2,48.2,100,29.96,1.8,Calm,Calm,-,N/A,,Mist,0,2013-09-22 11:55:00
7:15 AM,46.4,46.4,100,29.97,0.2,Calm,Calm,-,N/A,Fog,Fog,0,2013-09-22 12:15:00
7:35 AM,46.4,46.4,100,29.97,0.2,Calm,Calm,-,N/A,Fog,Fog,0,2013-09-22 12:35:00
7:55 AM,50.0,50.0,100,29.98,0.8,Calm,Calm,-,N/A,,Mist,0,2013-09-22 12:55:00
8:15 AM,51.8,51.8,100,29.98,0.5,Calm,Calm,-,N/A,Fog,Fog,0,2013-09-22 13:15:00
8:35 AM,51.8,51.8,100,29.98,10.0,Calm,Calm,-,N/A,,Unknown,0,2013-09-22 13:35:00
8:55 AM,53.6,53.6,100,29.99,10.0,Calm,Calm,-,N/A,,Unknown,0,2013-09-22 13:55:00
9:15 AM,55.4,55.4,100,29.99,10.0,Calm,Calm,-,N/A,,Unknown,0,2013-09-22 14:15:00
9:35 AM,59.0,59.0,100,29.99,10.0,Calm,Calm,-,N/A,,Unknown,0,2013-09-22 14:35:00
9:55 AM,60.8,55.4,82,30.00,10.0,Calm,Calm,-,N/A,,Unknown,0,2013-09-22 14:55:00
10:15 AM,62.6,57.2,82,30.00,10.0,Calm,Calm,-,N/A,,Unknown,0,2013-09-22 15:15:00
10:35 AM,66.2,59.0,78,29.99,10.0,Calm,Calm,-,N/A,,Unknown,0,2013-09-22 15:35:00
10:55 AM,68.0,59.0,73,29.99,10.0,ENE,3.5,-,N/A,,Unknown,60,2013-09-22 15:55:00
11:15 AM,71.6,59.0,64,29.99,10.0,East,3.5,-,N/A,,Unknown,100,2013-09-22 16:15:00
11:35 AM,71.6,57.2,60,29.98,10.0,Calm,Calm,-,N/A,,Unknown,0,2013-09-22 16:35:00
11:55 AM,73.4,57.2,57,29.98,10.0,Calm,Calm,-,N/A,,Unknown,0,2013-09-22 16:55:00
12:15 PM,77.0,55.4,47,29.97,10.0,ENE,3.5,-,N/A,,Unknown,70,2013-09-22 17:15:00
12:35 PM,77.0,55.4,47,29.97,10.0,SE,3.5,-,N/A,,Unknown,130,2013-09-22 17:35:00
12:55 PM,77.0,55.4,47,29.96,10.0,ESE,5.8,-,N/A,,Unknown,110,2013-09-22 17:55:00
1:15 PM,77.0,53.6,44,29.95,10.0,Calm,Calm,-,N/A,,Unknown,0,2013-09-22 18:15:00
1:35 PM,77.0,53.6,44,29.94,10.0,Calm,Calm,-,N/A,,Unknown,0,2013-09-22 18:35:00
1:55 PM,77.0,53.6,44,29.93,7.0,Calm,Calm,-,N/A,,Unknown,0,2013-09-22 18:55:00
2:15 PM,78.8,53.6,42,29.92,10.0,East,4.6,-,N/A,,Unknown,100,2013-09-22 19:15:00
2:35 PM,78.8,53.6,42,29.91,10.0,SE,6.9,-,N/A,,Unknown,140,2013-09-22 19:35:00
2:55 PM,78.8,51.8,39,29.91,10.0,Calm,Calm,-,N/A,,Unknown,0,2013-09-22 19:55:00
3:15 PM,78.8,53.6,42,29.90,10.0,East,5.8,-,N/A,,Unknown,90,2013-09-22 20:15:00
3:35 PM,78.8,53.6,42,29.89,10.0,Calm,Calm,-,N/A,,Unknown,0,2013-09-22 20:35:00
3:55 PM,80.6,55.4,42,29.88,10.0,NE,3.5,-,N/A,,Unknown,50,2013-09-22 20:55:00
4:15 PM,80.6,55.4,42,29.88,10.0,Calm,Calm,-,N/A,,Unknown,0,2013-09-22 21:15:00
4:35 PM,80.6,55.4,42,29.87,10.0,Calm,Calm,-,N/A,,Unknown,0,2013-09-22 21:35:00
4:55 PM,80.6,55.4,42,29.86,10.0,Calm,Calm,-,N/A,,Unknown,0,2013-09-22 21:55:00
5:15 PM,80.6,55.4,42,29.86,10.0,NE,3.5,-,N/A,,Unknown,40,2013-09-22 22:15:00
5:35 PM,80.6,55.4,42,29.86,10.0,ESE,4.6,-,N/A,,Unknown,120,2013-09-22 22:35:00
5:55 PM,80.6,53.6,39,29.86,10.0,Calm,Calm,-,N/A,,Unknown,0,2013-09-22 22:55:00
6:15 PM,78.8,55.4,44,29.86,10.0,SE,3.5,-,N/A,,Unknown,130,2013-09-22 23:15:00
6:35 PM,78.8,55.4,44,29.86,10.0,Calm,Calm,-,N/A,,Unknown,0,2013-09-22 23:35:00
6:55 PM,77.0,55.4,47,29.86,10.0,Calm,Calm,-,N/A,,Unknown,0,2013-09-22 23:55:00
7:15 PM,77.0,59.0,54,29.86,10.0,Calm,Calm,-,N/A,,Unknown,0,2013-09-23 00:15:00
7:35 PM,68.0,59.0,73,29.86,10.0,Calm,Calm,-,N/A,,Unknown,0,2013-09-23 00:35:00
7:55 PM,68.0,60.8,78,29.87,10.0,Calm,Calm,-,N/A,,Unknown,0,2013-09-23 00:55:00
8:15 PM,64.4,59.0,83,29.87,10.0,Calm,Calm,-,N/A,,Unknown,0,2013-09-23 01:15:00
8:35 PM,62.6,59.0,88,29.87,10.0,Calm,Calm,-,N/A,,Unknown,0,2013-09-23 01:35:00
8:55 PM,62.6,59.0,88,29.87,10.0,Calm,Calm,-,N/A,,Unknown,0,2013-09-23 01:55:00
9:15 PM,60.8,59.0,94,29.87,10.0,Calm,Calm,-,N/A,,Unknown,0,2013-09-23 02:15:00
9:35 PM,60.8,59.0,94,29.87,10.0,Calm,Calm,-,N/A,,Unknown,0,2013-09-23 02:35:00
9:55 PM,59.0,55.4,88,29.88,10.0,Calm,Calm,-,N/A,,Unknown,0,2013-09-23 02:55:00
10:15 PM,60.8,55.4,82,29.88,10.0,Calm,Calm,-,N/A,,Unknown,0,2013-09-23 03:15:00
10:35 PM,59.0,55.4,88,29.89,10.0,Calm,Calm,-,N/A,,Unknown,0,2013-09-23 03:35:00
10:55 PM,59.0,55.4,88,29.89,10.0,Calm,Calm,-,N/A,,Unknown,0,2013-09-23 03:55:00
11:15 PM,59.0,55.4,88,29.89,10.0,Calm,Calm,-,N/A,,Unknown,0,2013-09-23 04:15:00
11:35 PM,59.0,55.4,88,29.89,10.0,Calm,Calm,-,N/A,,Unknown,0,2013-09-23 04:35:00
11:55 PM,57.2,55.4,94,29.90,10.0,Calm,Calm,-,N/A,,Unknown,0,2013-09-23 04:55:00